157026701,2007-12-20T22:27:29.848,-1824.92, 9037101,  34.14, -30.67, 2574900, 2574858, 2574664, 2574838, 2574929,     173,    1.60,   0.445,    7.80,   29.03,    0.06
157026702,2007-12-20T22:27:34.848,-1819.92, 9008561,  34.27, -30.68, 2574890, 2574834, 2574628, 2574833, 2574919,     164,    1.17,   0.573,    7.71,   29.98,    0.00
157026703,2007-12-20T22:27:39.848,-1814.92, 8980110,  34.34, -30.69, 2574894, 2574789, 2574628, 2574856, 2574924,     152,    0.85,   0.651,    5.78,   27.82,    0.00
157026704,2007-12-20T22:27:44.848,-1809.92, 8951481,  34.37, -30.72, 2574899, 2574862, 2574594, 2574832, 2574930,     192,    0.76,   0.686,    6.56,   25.33,    0.06
157026705,2007-12-20T22:27:48.882,-1805.89, 8928517,  34.38, -30.75, 2574877, 2574785, 2574570, 2574807, 2574907,     189,    0.80,   0.683,    6.15,   26.40,    0.07
157026706,2007-12-20T22:27:52.916,-1801.86, 8905463,  34.38, -30.80, 2574904, 2574791, 2574565, 2574797, 2574933,     185,    1.03,   0.669,    6.57,   27.58,    0.04
157026707,2007-12-20T22:27:56.950,-1797.82, 8882319,  34.39, -30.87, 2574905, 2574823, 2574617, 2574836, 2574934,     193,    0.87,   0.632,    6.35,   27.48,    0.16
157026708,2007-12-20T22:28:00.984,-1793.79, 8859265,  34.39, -30.95, 2574858, 2574724, 2574574, 2574782, 2574886,     153,    0.84,   0.595,    6.30,   28.58,    0.03
157026709,2007-12-20T22:28:05.847,-1788.92, 8831413,  34.41, -31.03, 2574893, 2574770, 2574607, 2574806, 2574921,     181,    0.95,   0.564,    5.75,   27.52,    0.10
157026710,2007-12-20T22:28:09.881,-1784.89, 8808509,  34.39, -31.12, 2574878, 2574849, 2574606, 2574788, 2574906,     182,    0.64,   0.502,    6.48,   24.90,    0.02
157026711,2007-12-20T22:28:13.915,-1780.86, 8785245,  34.36, -31.22, 2574897, 2574899, 2574707, 2574873, 2574926,     159,    1.16,   0.428,    8.79,   29.64,    0.08
157026712,2007-12-20T22:28:17.949,-1776.82, 8762191,  34.34, -31.35, 2574891, 2574880, 2574692, 2574842, 2574921,     165,    1.10,   0.347,    6.87,   28.07,    0.06
157026713,2007-12-20T22:28:21.983,-1772.79, 8739167,  34.29, -31.49, 2574897, 2574856, 2574713, 2574854, 2574929,     124,    1.48,   0.277,    7.56,   30.44,    0.09
157026714,2007-12-20T22:28:26.847,-1767.92, 8711437,  34.24, -31.67, 2574887, 2574868, 2574719, 2574861, 2574919,     139,    1.52,   0.297,    6.79,   28.01,    0.13
157026715,2007-12-20T22:28:30.881,-1763.89, 8688413,  34.20, -31.82, 2574888, 2574881, 2574724, 2574880, 2574917,     119,    1.20,   0.393,    6.63,   29.17,    0.09
157026716,2007-12-20T22:28:34.915,-1759.86, 8665389,  34.14, -31.94, 2574886, 2574898, 2574694, 2574867, 2574914,     169,    1.10,   0.473,    6.17,   27.53,    0.07
157026717,2007-12-20T22:28:38.949,-1755.82, 8642424,  34.08, -32.01, 2574881, 2574849, 2574650, 2574829, 2574909,     162,    0.99,   0.505,    5.57,   24.36,    0.05
157026718,2007-12-20T22:28:42.983,-1751.79, 8619370,  34.00, -32.04, 2574888, 2574892, 2574698, 2574877, 2574916,     140,    0.99,   0.506,    6.31,   27.52,    0.06
157026719,2007-12-20T22:28:47.847,-1746.92, 8591640,  33.91, -32.10, 2574861, 2574840, 2574689, 2574880, 2574889,     124,    1.58,   0.555,    7.03,   28.11,    0.07
157026720,2007-12-20T22:28:51.881,-1742.89, 8568766,  33.84, -32.14, 2574864, 2574869, 2574663, 2574866, 2574892,     143,    1.16,   0.599,    5.77,   26.28,    0.06
157026721,2007-12-20T22:28:55.915,-1738.86, 8545682,  33.80, -32.16, 2574871, 2574894, 2574684, 2574891, 2574900,     153,    1.43,   0.615,    6.69,   29.68,    0.07
157026722,2007-12-20T22:28:59.949,-1734.82, 8522658,  33.81, -32.18, 2574883, 2574894, 2574699, 2574899, 2574911,     148,    1.57,   0.589,    7.81,   28.32,    0.12
157026723,2007-12-20T22:29:03.983,-1730.79, 8499723,  33.80, -32.17, 2574892, 2574880, 2574670, 2574861, 2574920,     159,    1.08,   0.559,    6.11,   25.93,    0.05
157026724,2007-12-20T22:29:08.847,-1725.92, 8472052,  33.80, -32.14, 2574890, 2574852, 2574696, 2574872, 2574917,     123,    1.71,   0.503,    6.94,   28.88,    0.07
157026725,2007-12-20T22:29:12.881,-1721.89, 8449208,  33.82, -32.09, 2574895, 2574782, 2574670, 2574833, 2574923,     121,    0.72,   0.447,    6.08,   26.52,    0.02
157026726,2007-12-20T22:29:16.915,-1717.86, 8426064,  33.83, -32.06, 2574875, 2574907, 2574733, 2574888, 2574903,     128,    1.40,   0.413,    6.10,   29.65,    0.06
157026727,2007-12-20T22:29:20.949,-1713.82, 8403130,  33.84, -32.01, 2574890, 2574895, 2574745, 2574900, 2574917,     112,    1.69,   0.414,    8.13,   31.63,    0.13
157026728,2007-12-20T22:29:24.983,-1709.79, 8380226,  33.84, -31.96, 2574902, 2574857, 2574674, 2574838, 2574929,     158,    1.09,   0.462,    5.79,   26.11,    0.07
157026729,2007-12-20T22:29:29.847,-1704.92, 8352585,  33.84, -31.90, 2574891, 2574834, 2574615, 2574797, 2574918,     162,    0.39,   0.539,    4.84,   23.99,    0.01
157026730,2007-12-20T22:29:33.881,-1700.89, 8329681,  33.87, -31.92, 2574884, 2574863, 2574660, 2574844, 2574911,     160,    1.23,   0.548,    6.86,   27.33,    0.07
157026731,2007-12-20T22:29:37.915,-1696.86, 8306717,  33.89, -31.95, 2574883, 2574818, 2574649, 2574833, 2574910,     142,    0.70,   0.552,    7.03,   27.53,    0.01
157026732,2007-12-20T22:29:41.949,-1692.82, 8283723,  33.94, -32.01, 2574909, 2574834, 2574657, 2574830, 2574936,     140,    1.16,   0.509,    5.70,   26.03,    0.08
157026733,2007-12-20T22:29:45.983,-1688.79, 8260879,  33.97, -32.07, 2574880, 2574834, 2574680, 2574844, 2574907,     150,    1.42,   0.475,    5.78,   26.44,    0.06
157026734,2007-12-20T22:29:50.847,-1683.92, 8233178,  34.02, -32.15, 2574887, 2574849, 2574674, 2574827, 2574914,     143,    1.13,   0.420,    5.86,   29.26,    0.03
157026735,2007-12-20T22:29:54.881,-1679.89, 8210274,  34.06, -32.22, 2574967, 2574886, 2574740, 2574884, 2574995,     115,    1.36,   0.378,    6.66,   29.02,    0.09
157026736,2007-12-20T22:29:58.915,-1675.86, 8187370,  34.10, -32.29, 2574925, 2574843, 2574712, 2574848, 2574954,     127,    1.55,   0.331,    7.63,   29.27,    0.11
157026737,2007-12-20T22:30:02.949,-1671.82, 8164406,  34.13, -32.36, 2574933, 2574860, 2574702, 2574832, 2574962,     131,    1.17,   0.294,    6.33,   28.25,    0.03
157026738,2007-12-20T22:30:06.982,-1667.79, 8141621,  34.17, -32.42, 2574902, 2574790, 2574679, 2574805, 2574932,     129,    0.93,   0.257,    5.04,   25.52,    0.02
157026739,2007-12-20T22:30:11.847,-1662.92, 8113890,  34.22, -32.51, 2574934, 2574872, 2574706, 2574825, 2574965,     144,    0.79,   0.200,    4.48,   25.77,    0.04
157026740,2007-12-20T22:30:15.881,-1658.89, 8091106,  34.26, -32.58, 2574900, 2574814, 2574730, 2574846, 2574932,      79,    1.34,   0.164,    8.45,   30.84,    0.13
157026741,2007-12-20T22:30:19.915,-1654.86, 8068202,  34.29, -32.65, 2574916, 2574839, 2574716, 2574830, 2574949,     112,    0.89,   0.127,    5.88,   28.47,    0.00
157026742,2007-12-20T22:30:23.949,-1650.82, 8045358,  34.33, -32.72, 2574907, 2574786, 2574727, 2574838, 2574941,      79,    0.90,   0.089,    6.91,   30.72,    0.09
157026743,2007-12-20T22:30:27.983,-1646.79, 8022394,  34.37, -32.79, 2574927, 2574872, 2574757, 2574867, 2574961,      97,    1.38,   0.069,    6.82,   30.69,    0.11
157026744,2007-12-20T22:30:32.846,-1641.93, 7994873,  34.41, -32.88, 2574923, 2574863, 2574729, 2574839, 2574957,     114,    0.78,   0.086,    6.68,   29.16,    0.06
157026745,2007-12-20T22:30:36.880,-1637.89, 7971969,  34.45, -32.96, 2574918, 2574855, 2574706, 2574817, 2574950,     123,    0.85,   0.125,    5.88,   27.76,    0.00
157026746,2007-12-20T22:30:40.914,-1633.86, 7949125,  34.49, -33.03, 2574895, 2574876, 2574740, 2574853, 2574926,     107,    1.19,   0.160,    8.37,   30.91,    0.06
157026747,2007-12-20T22:30:44.948,-1629.82, 7926310,  34.52, -33.10, 2574871, 2574840, 2574727, 2574842, 2574901,      90,    1.32,   0.197,    7.75,   30.59,    0.09
157026748,2007-12-20T22:30:48.982,-1625.79, 7903466,  34.56, -33.18, 2574882, 2574845, 2574732, 2574851, 2574911,      94,    1.44,   0.241,    7.90,   30.23,    0.14
157026749,2007-12-20T22:30:53.846,-1620.93, 7876065,  34.60, -33.27, 2574896, 2574798, 2574657, 2574783, 2574924,     135,    0.73,   0.301,    4.35,   25.15,    0.02
157026750,2007-12-20T22:30:57.880,-1616.89, 7853131,  34.63, -33.35, 2574875, 2574732, 2574664, 2574796, 2574902,     125,    0.80,   0.345,    5.75,   26.86,    0.09
157026751,2007-12-20T22:31:01.914,-1612.86, 7830346,  34.66, -33.43, 2574868, 2574787, 2574662, 2574801, 2574894,     145,    1.34,   0.392,    7.45,   28.37,    0.03
157026752,2007-12-20T22:31:05.948,-1608.82, 7807532,  34.70, -33.50, 2574889, 2574871, 2574692, 2574838, 2574914,     153,    1.33,   0.433,    6.86,   28.82,    0.07
157026753,2007-12-20T22:31:09.982,-1604.79, 7784658,  34.72, -33.54, 2574885, 2574865, 2574705, 2574850, 2574911,     124,    0.98,   0.431,    8.82,   30.15,    0.04
157026754,2007-12-20T22:31:14.846,-1599.93, 7757227,  34.75, -33.59, 2574867, 2574834, 2574705, 2574849, 2574893,     112,    1.81,   0.425,    9.04,   32.42,    0.08
157026755,2007-12-20T22:31:18.880,-1595.89, 7734383,  34.77, -33.63, 2574862, 2574844, 2574705, 2574847, 2574888,     116,    2.03,   0.418,    8.91,   32.15,    0.15
157026756,2007-12-20T22:31:22.914,-1591.86, 7711629,  34.79, -33.66, 2574871, 2574824, 2574693, 2574831, 2574897,     111,    1.96,   0.402,    8.85,   33.01,    0.13
157026757,2007-12-20T22:31:26.948,-1587.82, 7688815,  34.81, -33.71, 2574871, 2574842, 2574705, 2574843, 2574896,     106,    1.42,   0.401,    9.15,   30.78,    0.10
157026758,2007-12-20T22:31:30.982,-1583.79, 7666030,  34.83, -33.75, 2574869, 2574863, 2574702, 2574839, 2574895,     130,    1.23,   0.398,    8.78,   32.11,    0.04
157026759,2007-12-20T22:31:35.846,-1578.93, 7638600,  34.86, -33.80, 2574868, 2574852, 2574704, 2574840, 2574894,     126,    1.49,   0.397,   10.55,   33.90,    0.12
157026760,2007-12-20T22:31:39.880,-1574.89, 7615785,  34.88, -33.84, 2574873, 2574880, 2574720, 2574855, 2574898,     120,    1.39,   0.394,   10.17,   35.11,    0.06
157026761,2007-12-20T22:31:43.914,-1570.86, 7593121,  34.90, -33.88, 2574869, 2574783, 2574684, 2574818, 2574894,     128,    1.48,   0.394,    8.79,   31.01,    0.03
157026762,2007-12-20T22:31:47.948,-1566.82, 7570337,  34.92, -33.93, 2574857, 2574822, 2574674, 2574808, 2574882,     119,    1.00,   0.398,    8.69,   28.95,    0.09
157026763,2007-12-20T22:31:51.982,-1562.79, 7547553,  34.95, -33.98, 2574858, 2574856, 2574713, 2574848, 2574883,     122,    2.00,   0.403,    9.32,   33.68,    0.12
157026764,2007-12-20T22:31:56.846,-1557.93, 7520181,  34.97, -34.04, 2574851, 2574804, 2574675, 2574812, 2574876,     116,    1.48,   0.414,    9.70,   31.70,    0.11
157026765,2007-12-20T22:32:00.880,-1553.89, 7497397,  34.99, -34.08, 2574859, 2574876, 2574737, 2574872, 2574884,     105,    2.15,   0.407,   11.46,   35.66,    0.13
157026766,2007-12-20T22:32:04.914,-1549.86, 7474643,  35.02, -34.13, 2574851, 2574867, 2574681, 2574817, 2574876,     133,    0.88,   0.418,    8.70,   32.10,    0.02
157026767,2007-12-20T22:32:08.948,-1545.82, 7451978,  35.04, -34.19, 2574843, 2574806, 2574648, 2574786, 2574868,     132,    1.33,   0.425,    8.41,   29.68,    0.09
157026768,2007-12-20T22:32:12.982,-1541.79, 7429284,  35.06, -34.24, 2574856, 2574833, 2574674, 2574814, 2574881,     134,    1.38,   0.439,    8.82,   31.40,    0.09
157026769,2007-12-20T22:32:17.846,-1536.93, 7401943,  35.10, -34.31, 2574852, 2574776, 2574666, 2574808, 2574877,     129,    1.51,   0.450,    8.76,   30.68,    0.00
157026770,2007-12-20T22:32:21.880,-1532.89, 7379249,  35.11, -34.36, 2574843, 2574834, 2574691, 2574833, 2574867,     120,    1.75,   0.453,    7.87,   29.29,    0.14
157026771,2007-12-20T22:32:25.914,-1528.86, 7356495,  35.14, -34.41, 2574847, 2574862, 2574697, 2574842, 2574872,     135,    1.67,   0.466,    8.94,   33.24,    0.10
157026772,2007-12-20T22:32:29.948,-1524.82, 7333860,  35.17, -34.47, 2574836, 2574780, 2574604, 2574751, 2574861,     150,    1.10,   0.479,    7.25,   28.81,    0.03
157026773,2007-12-20T22:32:33.982,-1520.79, 7311106,  35.19, -34.53, 2574885, 2574836, 2574665, 2574814, 2574910,     146,    1.33,   0.492,    9.20,   30.59,    0.08
157026774,2007-12-20T22:32:38.846,-1515.93, 7283795,  35.23, -34.59, 2574866, 2574888, 2574704, 2574857, 2574891,     135,    1.49,   0.511,    9.09,   33.56,    0.03
157026775,2007-12-20T22:32:42.880,-1511.89, 7261101,  35.24, -34.63, 2574870, 2574898, 2574716, 2574865, 2574895,     149,    1.72,   0.493,    9.32,   34.30,    0.06
157026776,2007-12-20T22:32:46.914,-1507.86, 7238497,  35.25, -34.65, 2574881, 2574850, 2574705, 2574847, 2574905,     119,    1.80,   0.466,   10.22,   33.52,    0.10
157026777,2007-12-20T22:32:50.948,-1503.82, 7215862,  35.26, -34.67, 2574876, 2574834, 2574688, 2574822, 2574901,     139,    1.40,   0.430,    9.25,   32.04,    0.04
157026778,2007-12-20T22:32:54.982,-1499.79, 7193168,  35.27, -34.70, 2574887, 2574881, 2574677, 2574807, 2574911,     173,    1.04,   0.411,    7.63,   31.46,    0.02
157026779,2007-12-20T22:32:59.845,-1494.93, 7165976,  35.29, -34.72, 2574902, 2574830, 2574662, 2574785, 2574926,     153,    1.01,   0.378,    7.89,   27.69,    0.07
157026780,2007-12-20T22:33:03.879,-1490.89, 7143282,  35.30, -34.75, 2574853, 2574833, 2574708, 2574828, 2574877,     111,    1.92,   0.365,   10.15,   32.71,    0.15
157026781,2007-12-20T22:33:07.913,-1486.86, 7120678,  35.31, -34.77, 2574902, 2574819, 2574680, 2574798, 2574926,     131,    1.09,   0.348,    8.86,   31.64,    0.04
157026782,2007-12-20T22:33:11.947,-1482.82, 7098043,  35.33, -34.80, 2574906, 2574867, 2574725, 2574841, 2574930,     126,    1.45,   0.341,    9.35,   32.47,    0.10
157026783,2007-12-20T22:33:15.981,-1478.79, 7075439,  35.34, -34.83, 2574909, 2574878, 2574713, 2574828, 2574933,     144,    1.27,   0.336,    8.84,   33.14,    0.03
157026784,2007-12-20T22:33:20.845,-1473.93, 7048218,  35.36, -34.86, 2574892, 2574848, 2574701, 2574815, 2574915,     129,    1.24,   0.339,    8.18,   31.24,    0.06
157026785,2007-12-20T22:33:24.879,-1469.89, 7025644,  35.38, -34.89, 2574942, 2574856, 2574712, 2574826, 2574966,     130,    1.26,   0.342,    9.02,   30.63,    0.09
157026786,2007-12-20T22:33:28.913,-1465.86, 7003069,  35.39, -34.92, 2574902, 2574809, 2574643, 2574758, 2574926,     155,    0.85,   0.348,    7.79,   27.61,    0.04
157026787,2007-12-20T22:33:32.947,-1461.82, 6980585,  35.40, -34.96, 2574923, 2574754, 2574630, 2574745, 2574946,     134,    0.80,   0.352,    7.21,   29.10,    0.00
157026788,2007-12-20T22:33:36.981,-1457.79, 6958011,  35.42, -34.98, 2574884, 2574866, 2574702, 2574818, 2574907,     139,    1.36,   0.365,    8.88,   33.18,    0.03
157026789,2007-12-20T22:33:41.845,-1452.93, 6930820,  35.44, -35.03, 2574867, 2574782, 2574631, 2574750, 2574891,     144,    0.95,   0.382,    7.85,   30.90,    0.01
157026790,2007-12-20T22:33:45.879,-1448.89, 6908305,  35.45, -35.06, 2574861, 2574763, 2574607, 2574728, 2574884,     153,    0.61,   0.391,    7.14,   27.83,    0.01
157026791,2007-12-20T22:33:49.913,-1444.86, 6885701,  35.47, -35.10, 2574862, 2574792, 2574648, 2574773, 2574885,     131,    1.30,   0.414,    8.34,   30.68,    0.10
157026792,2007-12-20T22:33:53.947,-1440.82, 6863126,  35.49, -35.14, 2574878, 2574874, 2574691, 2574818, 2574902,     149,    1.21,   0.426,    9.33,   33.73,    0.03
157026793,2007-12-20T22:33:57.981,-1436.79, 6840642,  35.51, -35.18, 2574851, 2574837, 2574661, 2574792, 2574874,     166,    1.48,   0.450,    8.12,   30.25,    0.10
157026794,2007-12-20T22:34:02.845,-1431.93, 6813480,  35.53, -35.22, 2574848, 2574859, 2574661, 2574794, 2574872,     167,    1.05,   0.466,    7.11,   31.02,    0.02
157026795,2007-12-20T22:34:06.879,-1427.89, 6790996,  35.54, -35.27, 2574839, 2574830, 2574658, 2574794, 2574863,     136,    1.29,   0.476,    8.04,   31.27,    0.05
157026796,2007-12-20T22:34:10.913,-1423.86, 6768542,  35.53, -35.31, 2574837, 2574812, 2574654, 2574787, 2574861,     135,    1.24,   0.469,    7.99,   31.49,    0.06
157026797,2007-12-20T22:34:14.947,-1419.82, 6746057,  35.50, -35.36, 2574844, 2574823, 2574681, 2574810, 2574868,     117,    1.68,   0.449,    9.74,   32.23,    0.13
157026798,2007-12-20T22:34:18.981,-1415.79, 6723573,  35.47, -35.41, 2574822, 2574829, 2574688, 2574814, 2574846,     120,    1.95,   0.440,    8.25,   32.81,    0.12
157026799,2007-12-20T22:34:23.845,-1410.93, 6696472,  35.45, -35.48, 2574821, 2574825, 2574686, 2574810, 2574844,     118,    1.96,   0.428,    9.91,   34.60,    0.12
157026800,2007-12-20T22:34:27.879,-1406.89, 6674227,  35.43, -35.55, 2574810, 2574775, 2574616, 2574733, 2574833,     126,    0.85,   0.394,    7.20,   29.22,    0.01
157026801,2007-12-20T22:34:31.913,-1402.86, 6651563,  35.42, -35.64, 2574830, 2574792, 2574673, 2574781, 2574853,      98,    1.24,   0.347,    8.52,   31.45,    0.11
157026802,2007-12-20T22:34:35.947,-1398.82, 6629108,  35.41, -35.72, 2574837, 2574797, 2574682, 2574785, 2574859,      98,    1.19,   0.312,    8.31,   31.09,    0.08
157026803,2007-12-20T22:34:39.981,-1394.79, 6606714,  35.41, -35.81, 2574829, 2574802, 2574683, 2574780, 2574852,     101,    0.78,   0.276,    6.73,   29.38,    0.05
157026804,2007-12-20T22:34:44.845,-1389.93, 6579702,  35.40, -35.91, 2574872, 2574785, 2574699, 2574791, 2574895,      77,    0.88,   0.237,    6.75,   32.91,    0.11
157026805,2007-12-20T22:34:49.845,-1384.93, 6551911,  35.39, -36.02, 2574850, 2574779, 2574707, 2574796, 2574874,      69,    1.30,   0.201,    9.75,   34.70,    0.11
157026806,2007-12-20T22:34:53.879,-1380.89, 6529487,  35.38, -36.10, 2574858, 2574828, 2574713, 2574800, 2574882,      95,    0.86,   0.187,    7.52,   31.65,    0.03
157026807,2007-12-20T22:34:57.913,-1376.86, 6507063,  35.37, -36.19, 2574868, 2574823, 2574721, 2574807, 2574892,      88,    1.09,   0.173,    8.59,   31.96,    0.09
157026808,2007-12-20T22:35:01.947,-1372.82, 6484668,  35.36, -36.28, 2574872, 2574823, 2574718, 2574804, 2574896,      81,    0.96,   0.181,    8.61,   34.16,    0.09
157026809,2007-12-20T22:35:05.981,-1368.79, 6462274,  35.36, -36.38, 2574871, 2574863, 2574755, 2574841, 2574894,      87,    1.51,   0.191,    8.42,   33.86,    0.09
157026810,2007-12-20T22:35:10.845,-1363.93, 6435352,  35.35, -36.48, 2574874, 2574848, 2574746, 2574835, 2574897,      87,    1.49,   0.223,    9.42,   33.45,    0.11
157026811,2007-12-20T22:35:14.879,-1359.89, 6412958,  35.35, -36.57, 2574886, 2574880, 2574781, 2574873, 2574908,      77,    2.02,   0.255,    9.70,   34.79,    0.14
157026812,2007-12-20T22:35:18.913,-1355.86, 6390593,  35.34, -36.67, 2574952, 2574887, 2574779, 2574874, 2574974,      81,    1.87,   0.295,    8.49,   34.65,    0.10
157026813,2007-12-20T22:35:22.947,-1351.82, 6368289,  35.34, -36.76, 2574915, 2574886, 2574784, 2574885, 2574936,      86,    2.07,   0.335,    8.61,   32.21,    0.17
157026814,2007-12-20T22:35:26.980,-1347.79, 6345924,  35.35, -36.85, 2574947, 2574909, 2574779, 2574885, 2574969,      99,    1.00,   0.369,    7.50,   31.81,    0.07
157026815,2007-12-20T22:35:31.844,-1342.93, 6319063,  35.38, -36.95, 2574955, 2574880, 2574753, 2574861, 2574976,     111,    0.79,   0.379,    6.55,   29.41,    0.03
157026816,2007-12-20T22:35:35.878,-1338.89, 6296699,  35.42, -37.04, 2574986, 2574938, 2574829, 2574937, 2575008,      97,    1.47,   0.386,    7.78,   32.52,    0.08
157026817,2007-12-20T22:35:39.912,-1334.86, 6274364,  35.46, -37.13, 2574990, 2574951, 2574812, 2574920, 2575012,     106,    0.86,   0.388,    5.28,   30.04,    0.02
157026818,2007-12-20T22:35:43.946,-1330.83, 6252119,  35.50, -37.22, 2575011, 2574939, 2574831, 2574941, 2575033,      95,    1.37,   0.406,    6.32,   31.66,    0.05
157026819,2007-12-20T22:35:47.980,-1326.79, 6229755,  35.54, -37.31, 2575020, 2575003, 2574848, 2574961, 2575042,     121,    1.08,   0.421,    6.16,   29.87,    0.04
157026820,2007-12-20T22:35:52.844,-1321.93, 6202923,  35.59, -37.41, 2575010, 2575006, 2574867, 2574984, 2575032,     109,    1.39,   0.441,    7.65,   31.87,    0.10
157026821,2007-12-20T22:35:56.878,-1317.89, 6180679,  35.62, -37.50, 2575018, 2574986, 2574821, 2574942, 2575041,     125,    0.78,   0.465,    5.64,   30.92,    0.02
157026822,2007-12-20T22:36:00.912,-1313.86, 6158434,  35.66, -37.56, 2575044, 2574996, 2574859, 2574977, 2575067,     102,    1.29,   0.451,    6.82,   31.55,    0.08
157026823,2007-12-20T22:36:04.946,-1309.83, 6136189,  35.68, -37.62, 2575081, 2575009, 2574843, 2574959, 2575104,     142,    1.02,   0.443,    4.40,   28.25,    0.02
157026824,2007-12-20T22:36:08.980,-1305.79, 6113975,  35.71, -37.68, 2575091, 2575041, 2574910, 2575022, 2575113,     108,    1.60,   0.425,    7.67,   34.46,    0.09
157026825,2007-12-20T22:36:13.844,-1300.93, 6087203,  35.74, -37.75, 2575116, 2575032, 2574896, 2575006, 2575138,     105,    1.05,   0.419,    8.00,   33.97,    0.06
157026826,2007-12-20T22:36:17.878,-1296.89, 6064989,  35.78, -37.82, 2575119, 2575016, 2574877, 2574984, 2575141,     119,    0.92,   0.407,    6.67,   30.54,    0.03
157026827,2007-12-20T22:36:21.912,-1292.86, 6042834,  35.80, -37.88, 2575171, 2574960, 2574830, 2574936, 2575192,     121,   -0.11,   0.400,    6.67,   29.71,    0.04
157026828,2007-12-20T22:36:25.946,-1288.83, 6020679,  35.84, -37.94, 2575143, 2574942, 2574842, 2574946, 2575164,     126,    0.40,   0.392,    5.53,   29.18,    0.05
157026829,2007-12-20T22:36:29.980,-1284.79, 5998495,  35.86, -38.01, 2575148, 2574960, 2574817, 2574921, 2575169,     133,    0.12,   0.390,    5.33,   26.97,    0.03
157026830,2007-12-20T22:36:34.844,-1279.93, 5971843,  35.90, -38.10, 2575165, 2574913, 2574844, 2574946, 2575186,     100,    0.18,   0.389,    6.19,   30.87,    0.00
157026831,2007-12-20T22:36:38.878,-1275.89, 5949689,  35.93, -38.16, 2575134, 2574954, 2574850, 2574951, 2575155,      93,    0.69,   0.383,    8.10,   34.78,    0.04
157026832,2007-12-20T22:36:42.912,-1271.86, 5927564,  35.96, -38.24, 2575130, 2574959, 2574843, 2574944, 2575151,      96,    0.74,   0.388,    7.94,   34.54,    0.01
157026833,2007-12-20T22:36:46.946,-1267.83, 5905469,  36.00, -38.31, 2575137, 2574926, 2574832, 2574933, 2575158,     105,    0.23,   0.386,    7.25,   30.47,    0.04
157026834,2007-12-20T22:36:50.980,-1263.79, 5883345,  36.02, -38.38, 2575141, 2574962, 2574851, 2574953, 2575162,      91,    1.03,   0.390,    9.97,   36.47,    0.06
157026835,2007-12-20T22:36:55.844,-1258.93, 5856753,  36.05, -38.45, 2575171, 2574909, 2574813, 2574912, 2575192,      96,   -0.12,   0.377,    7.58,   29.51,    0.08
157026836,2007-12-20T22:36:59.878,-1254.89, 5834658,  36.06, -38.51, 2575192, 2574914, 2574837, 2574932, 2575213,      99,   -0.58,   0.363,    7.56,   31.50,    0.05
157026837,2007-12-20T22:37:03.912,-1250.86, 5812593,  36.07, -38.59, 2575113, 2574915, 2574833, 2574929, 2575133,      85,    0.62,   0.370,    8.51,   32.39,    0.09
157026838,2007-12-20T22:37:07.946,-1246.83, 5790559,  36.07, -38.67, 2575158, 2574901, 2574822, 2574923, 2575179,      88,    0.14,   0.399,    6.66,   32.15,    0.04
157026839,2007-12-20T22:37:11.979,-1242.79, 5768524,  36.06, -38.77, 2575057, 2574903, 2574799, 2574908, 2575079,     100,    0.57,   0.446,    7.79,   30.93,    0.04
157026840,2007-12-20T22:37:16.844,-1237.93, 5741932,  36.04, -38.88, 2575114, 2574917, 2574800, 2574919, 2575138,      92,    0.55,   0.493,    6.42,   30.92,    0.07
157026841,2007-12-20T22:37:20.878,-1233.89, 5719988,  36.08, -38.95, 2575092, 2574887, 2574790, 2574906, 2575116,      96,    0.12,   0.482,    7.81,   31.45,    0.04
157026842,2007-12-20T22:37:24.912,-1229.86, 5697923,  36.12, -39.02, 2575060, 2574925, 2574812, 2574925, 2575083,      93,    0.60,   0.470,    7.15,   30.93,    0.07
157026843,2007-12-20T22:37:28.946,-1225.83, 5675888,  36.15, -39.08, 2575085, 2574903, 2574798, 2574907, 2575108,      96,    0.67,   0.453,    6.84,   30.70,    0.06